Home > Weather > Brandon > Past weeks

Flag for Canada Weather for the Past 2 Weeks in Brandon, Manitoba, Canada

Now
21 °F

Light snow. Overcast.


Feels Like: 7 °F
Forecast: 17 / 32 °F
Wind: 17 mph from North

Location: Brandon

Current Time: Feb 7, 2016 at 10:22:09 AM

Latest Report: Feb 7, 2016 at 9:04 AM


Visibility: 12 mi

Pressure: 29.81 "Hg

Humidity: 86%

Dew point: 18 °F

Location of BrandonLocation

Historic Weather in Brandon — Graph

°F

Brandon Temperature Yesterday

Maximum temperature yesterday: 39 °F (at 4:00 PM)
Minimum temperature yesterday: 18 °F (at 12:00 AM)
Average temperature yesterday: 29 °F

High & Low Weather Summary for the Past Weeks

 TemperatureHumidityPressure
High39 °F (Feb 6, 4:00 PM)100% (Jan 24, 12:00 PM)30.31 "Hg (Jan 24, 12:00 PM)
Low0 °F (Jan 26, 9:00 AM)58% (Feb 2, 3:00 PM)29.30 "Hg (Jan 30, 12:00 AM)
Average21 °F86%29.88 "Hg
* Reported Jan 23 9:00 AM — Feb 7 9:00 AM, Brandon, Weather by CustomWeather, © 2016

Note: Actual official high and low records may vary slightly from our data, if they occured in-between our weather recording intervals... More about our weather records

Advertising

Brandon Weather History for the Previous 24 Hours

 ConditionsComfort  
Time TempWeatherWind HumidityBarometerVisibility
9:00 AM
Sun, Feb 7
21 °FMostly cloudy.18 mph86%29.81 "Hg15 mi
8:00 AM25 °FOvercast.32 mph74%29.74 "Hg15 mi
7:00 AM28 °FOvercast.28 mph80%29.67 "Hg15 mi
6:00 AM34 °FOvercast.22 mph87%29.60 "Hg15 mi
5:00 AM32 °FPassing clouds.20 mph87%29.57 "Hg15 mi
4:00 AM32 °FPartly cloudy.21 mph80%29.56 "Hg15 mi
3:00 AM34 °FMostly cloudy.24 mph81%29.55 "Hg15 mi
2:00 AM36 °FOvercast.26 mph75%29.52 "Hg15 mi
1:00 AM36 °FOvercast.26 mph81%29.52 "Hg15 mi
12:00 AM36 °FLight rain. Passing clouds.28 mph87%29.51 "Hg15 mi
11:00 PM
Sat, Feb 6
34 °FLight rain. Mostly cloudy.24 mph93%29.50 "Hg15 mi
10:00 PM36 °FMostly cloudy.29 mph87%29.49 "Hg15 mi
9:00 PM36 °FPartly cloudy.21 mph81%29.47 "Hg15 mi
8:00 PM36 °FPartly cloudy.20 mph87%29.47 "Hg15 mi
7:00 PM37 °FPassing clouds.15 mph75%29.46 "Hg15 mi
6:00 PM37 °FPassing clouds.16 mph75%29.49 "Hg15 mi
5:00 PM37 °FPartly sunny.10 mph81%29.47 "Hg15 mi
4:00 PM39 °FPartly sunny.14 mph75%29.50 "Hg15 mi
3:00 PM37 °FPartly sunny.7 mph81%29.52 "Hg15 mi
2:00 PM37 °FBroken clouds.6 mph81%29.56 "Hg15 mi
1:00 PM34 °FMostly cloudy.3 mph87%29.60 "Hg15 mi
12:00 PM34 °FLight rain. Overcast.8 mph81%29.63 "Hg12 mi
11:00 AM27 °FMostly cloudy.No wind86%29.67 "Hg15 mi
10:00 AM25 °FMostly cloudy.3 mph86%29.70 "Hg15 mi
Weather by CustomWeather, © 2016

See weather overviewHow to use our weather pages